Regional Weather Roundup
Issued by NWS Jackson, KY

Home | Current Version | Previous Version | Graphics & Text | Print | Product List | Glossary On
Versions: 1 2 3 4 5 6 7 8 9 10 11 12 13 14 15 16 17 18 19 20 21 22 23 24 25 26 27
000
ASUS43 KJKL 160610
RWRJKL

EAST KENTUCKY HOURLY WEATHER ROUNDUP
NATIONAL WEATHER SERVICE JACKSON KY
100 AM EST TUE JAN 16 2018

NOTE: "FAIR" INDICATES FEW OR NO CLOUDS BELOW 12,000 FEET WITH
NO SIGNIFICANT WEATHER AND/OR OBSTRUCTIONS TO VISIBILITY.

* THESE REPORTS ARE NOT UNDER NWS QUALITY CONTROL AND MAY NOT
  REPORT WEATHER SUCH AS PRECIPITATION AND FOG.

KYZ079-080-083-085-087-088-110-112-115-119-120-160700
...EASTERN KENTUCKY...

CITY           SKY/WX    TMP DP  RH WIND       PRES   REMARKS
JACKSON        CLOUDY    31  25  78 NW7       30.32S WCI  24
6HR MIN TEMP:  31; 6HR MAX TEMP:  37; 6HR PCP: TRACE;

LONDON         CLOUDY    31  26  82 W5        30.34S WCI  26
6HR MIN TEMP:  30; 6HR MAX TEMP:  40;

SOMERSET*      CLOUDY    30  27  86 W7        30.39R WCI  23
MONTICELLO*    CLOUDY    30  28  92 W7        30.40S WCI  23
6HR MIN TEMP:  29; 6HR MAX TEMP:  40; 6HR PCP: TRACE;

WILLIAMSBURG*  CLOUDY    32  27  80 CALM      30.35S
MIDDLESBORO*     N/A     31  26  81 CALM      30.33S
6HR MIN TEMP:  29; 6HR MAX TEMP:  33;

HARLAN APT*      N/A     32  25  74 CALM      30.30F
PIKE CO APT*     N/A     32  27  82 CALM      30.31S
BIG SANDY APT* MOCLDY    33  27  77 CALM      30.33S
6HR MIN TEMP:  33; 6HR MAX TEMP:  37;

MOREHEAD APT*  CLOUDY    28  23  80 W3        30.37S
ASHLAND*       CLOUDY    31  26  82 W5        30.37S WCI  26
$$

KYZ035-036-041-042-044-050-067-078-099-160700
...CENTRAL KENTUCKY...

CITY           SKY/WX    TMP DP  RH WIND       PRES   REMARKS
MT STERLING*   CLOUDY    28  27  93 W5        30.37S WCI  23
FLEMING/MASON* CLOUDY    26  23  86 W13       30.37R WCI  15
DANVILLE*      FLURRIES  23  19  86 NW12      30.39S WCI  12
LEXINGTON      LGT SNOW  21  15  78 NW12G21   30.39R WCI   9
6HR MIN TEMP:  21; 6HR MAX TEMP:  30; 6HR PCP:  0.04;

FRANKFORT      LGT SNOW  20  14  77 W5        30.40R WCI  13
6HR MIN TEMP:  20; 6HR MAX TEMP:  30; 6HR PCP: TRACE;

LOUISVILLE     LGT SNOW  16  11  80 W10       30.46R WCI   4
6HR MIN TEMP:  16; 6HR MAX TEMP:  30; 6HR PCP:  0.03;

LEBANON*       LGT SNOW  19  18  93 NW10      30.42R WCI   8
GLASGOW*       LGT SNOW  21  18  88 NW6       30.45R WCI  14
BOWLING GREEN  LGT SNOW  19  16  88 NW6       30.49R FOG     WCI  11
6HR MIN TEMP:  19; 6HR MAX TEMP:  32; 6HR PCP:  0.02;

$$

KYZ091>093-OHZ055-061-077-WVZ005-015-034-035-042-160700
...SOUTHERN OHIO/WEST VIRGINIA...

CITY           SKY/WX    TMP DP  RH WIND       PRES   REMARKS
COVINGTON      FLURRIES  14   7  73 NW13      30.38S WCI   0
COLUMBUS       LGT SNOW  26  25  96 S3        30.31S FOG
DAYTON         CLOUDY    12   8  84 NW9       30.36S WCI   0
WILMINGTON     LGT SNOW  18  16  92 W15G22    30.33S FOG     WCI   4
HUNTINGTON     CLOUDY    32  23  69 W10       30.34S WCI  24
CHARLESTON     CLOUDY    34  24  67 NW3       30.33R
BECKLEY        CLOUDY    33  21  61 S6        30.27F WCI  28
BLUEFIELD      MOCLDY    31  20  63 SW6       30.27F WCI  25
LOGAN CO APT*  CLOUDY    34  23  64 CALM      30.29F
$$

VAZ002-007-008-TNZ017-027-036-066-071-160700
...SOUTHWEST VIRGINIA/EAST TENNESSEE...

CITY           SKY/WX    TMP DP  RH WIND       PRES   REMARKS
WISE*            N/A     32  23  69 CALM      30.28S
JONESVILLE*      N/A     27  25  93 CALM      30.35F
ABINGDON*        N/A     28  25  86 CALM      30.32S
BRISTOL          N/A     24  22  91 CALM      30.35S
MORRISTOWN*    MOCLDY    28  25  86 CALM      30.33F
SEVIERVILLE*   PTCLDY    25  23  93 CALM      30.34F
KNOXVILLE        N/A     32  24  72 W5        30.33F WCI  27
LAFOLLETTE*    MOCLDY    28  25  86 CALM      30.36F
OAK RIDGE        N/A     27  23  85 CALM      30.36S
CROSSVILLE       N/A     30  20  66 NW3       30.31S
NASHVILLE      LGT SNOW  26  22  84 N18       30.45R FOG     WCI  13
$$

...KEY TO REMARKS...
VSB - VISIBILITY IN MILES
WCI - WIND CHILL INDEX
HX  - HEAT INDEX

$$




USA.gov is the U.S. government's official web portal to all federal, state and local government web resources and services.